[[{"header":{"parameterUnit":"m.s-1","parameterCategory":1,"la1":30.2991,"la2":30.254,"lo1":-89.0895,"lo2":-89.0444,"dy":0.0017,"dx":0.0017,"nx":28,"ny":28,"refTime":"2025-07-24T21:00:00:Z","depth":0,"parameterNumber":2,"parameterNumberName":"U-component_of_WINDS"},"data":[0,0,0,0,0,0,0,0,0,0,0,0,0,0,0,0,0,0,0,0,0,0,0,0,0,0,0,0,0,0,0,0,0,0,0,0,0,0,0,0,0,0,0,0,0,0,0,0,0,0,0,0,0,0,0,0,0,0,-2.6981,-2.6982,0,-2.7097,-2.7099,-2.71,-2.7149,-2.7149,-2.7149,-2.7149,-2.7275,-2.7279,-2.7282,0,0,0,0,0,0,0,0,0,0,0,0,0,-2.6809,-2.6812,-2.6981,-2.6982,-2.6984,-2.7097,-2.7099,-2.71,-2.7149,-2.7149,-2.7149,-2.7148,-2.7274,-2.7278,-2.7282,0,0,0,0,0,0,0,0,0,0,0,0,0,-2.69,-2.6813,-2.6981,-2.7022,-2.7026,-2.7097,-2.7099,-2.7101,-2.7149,-2.7149,-2.7149,-2.7148,-2.7272,-2.7278,-2.7283,-2.7323,0,0,-2.7299,-2.7302,0,0,0,0,0,0,0,0,-2.6895,-2.6907,-2.7014,-2.7019,-2.7024,-2.7108,-2.7085,-2.7176,-2.7149,-2.7103,-2.7149,-2.7148,-2.722,-2.723,-2.7253,-2.7329,-2.7335,-2.73,-2.7303,-2.7306,-2.7307,0,0,0,0,0,0,0,-2.6889,-2.6902,-2.7027,-2.7016,-2.7022,-2.7037,-2.705,-2.7102,-2.7163,-2.7107,-2.7111,-2.7124,-2.7223,-2.7248,-2.7256,-2.7337,-2.73,-2.7305,-2.7308,-2.731,-2.7454,-2.7455,0,0,0,0,0,0,-2.6875,-2.6896,-2.7024,-2.7031,-2.6957,-2.704,-2.7054,-2.7082,-2.7162,-2.7174,-2.7124,-2.7125,-2.7239,-2.725,-2.7261,-2.7314,-2.7305,-2.7311,-2.7314,-2.7454,-2.7454,-2.7455,0,0,0,0,0,0,-2.6871,-2.6885,-2.7019,-2.6965,-2.6983,-2.7044,-2.7074,-2.7084,-2.7109,-2.7174,-2.7186,-2.7137,-2.7239,-2.7253,-2.7307,-2.7319,-2.7313,-2.7318,-2.7453,-2.7454,-2.7455,-2.742,0,0,0,0,0,0,-2.6866,-2.6884,-2.6898,-2.6964,-2.6985,-2.7061,-2.7075,-2.7087,-2.7117,-2.712,-2.719,-2.7201,-2.724,-2.7299,-2.7313,-2.7326,-2.7322,-2.7452,-2.7453,-2.7454,-2.742,-2.742,-2.7419,0,0,0,0,0,-2.6859,-2.6885,-2.6898,-2.6913,-2.7004,-2.7061,-2.7074,-2.7115,-2.7118,-2.7134,-2.7176,-2.7199,-2.7316,-2.7304,-2.732,-2.7335,-2.7452,-2.7453,-2.7454,-2.7421,-2.742,-2.7419,0,0,0,0,0,0,-2.682,-2.6894,-2.691,-2.6957,-2.7002,-2.7069,-2.709,-2.7112,-2.7159,-2.7161,-2.7213,-2.7228,-2.7278,-2.7313,-2.7298,-2.738,-2.7386,-2.739,-2.7355,-2.7355,-2.7354,-2.7344,-2.7327,0,0,0,0,0,-2.6816,-2.6854,-2.6918,-2.6954,-2.6976,-2.7029,-2.7056,-2.7083,-2.7133,-2.7153,-2.72,-2.725,-2.7298,-2.7328,-2.7376,-2.7426,-2.7443,-2.7445,-2.7444,-2.7443,-2.7446,-2.7477,-2.7479,-2.7459,-2.7459,-2.7459,0,0,-2.681,-2.6856,-2.6877,-2.6947,-2.6985,-2.7026,-2.7045,-2.7087,-2.7118,-2.7161,-2.7214,-2.725,-2.7309,-2.7361,-2.7387,-2.7392,-2.7456,-2.7445,-2.7444,-2.7448,-2.7478,-2.748,-2.7482,-2.746,-2.746,-2.746,0,0,-2.682,-2.6857,-2.6891,-2.6929,-2.6985,-2.7021,-2.7029,-2.7093,-2.7118,-2.7172,-2.7205,-2.7245,-2.7326,-2.7366,-2.7398,-2.7424,-2.7447,-2.7438,-2.7435,-2.7464,-2.7465,-2.7467,-2.7477,-2.7479,-2.7442,-2.7442,-2.7442,0,-2.6805,-2.6865,-2.6906,-2.6946,-2.6977,-2.7015,-2.7052,-2.7087,-2.7158,-2.718,-2.7184,-2.7287,-2.7329,-2.7392,-2.7398,-2.7422,-2.7435,-2.743,-2.7461,-2.7463,-2.7465,-2.7475,-2.7479,-2.744,-2.744,-2.744,-2.7441,0,-2.6845,-2.6887,-2.6908,-2.6972,-2.7006,-2.7044,-2.7093,-2.7123,-2.7148,-2.7184,-2.724,-2.7292,-2.7351,-2.7369,-2.7395,-2.7436,-2.7437,-2.7451,-2.7458,-2.7465,-2.7475,-2.7479,-2.7438,-2.7438,-2.7439,-2.7439,0,0,-2.6833,-2.6919,-2.6926,-2.6956,-2.7022,-2.7056,-2.7098,-2.7153,-2.7178,-2.7226,-2.7263,-2.7331,-2.7344,-2.738,-2.7411,-2.7437,-2.7455,-2.7447,-2.745,-2.7447,-2.7505,-2.7494,-2.7497,-2.7471,-2.7472,-2.7473,-2.75,0,-2.6851,-2.6922,-2.6961,-2.7018,-2.7057,-2.7095,-2.7131,-2.7177,-2.7212,-2.7253,-2.7293,-2.7341,-2.7354,-2.7376,-2.7402,-2.7446,-2.7467,-2.7445,-2.7508,-2.7509,-2.7491,-2.7503,-2.7492,-2.7515,-2.7504,-2.7505,-2.7505,0,-2.6881,-2.6926,-2.6985,-2.7047,-2.7066,-2.7097,-2.7152,-2.719,-2.7244,-2.7268,-2.7307,-2.7338,-2.7386,-2.739,-2.7457,-2.7441,-2.747,-2.7496,-2.7498,-2.7505,-2.7507,-2.7511,-2.7523,-2.7526,-2.7512,-2.7512,-2.7511,0,-2.6866,-2.6942,-2.6987,-2.7012,-2.7085,-2.7107,-2.7139,-2.7192,-2.7223,-2.7272,-2.7294,-2.7349,-2.7379,-2.7422,-2.7468,-2.7466,-2.7531,-2.7539,-2.7554,-2.7553,-2.7566,-2.7564,-2.7583,-2.7584,-2.7584,-2.7584,-2.7584,0,-2.6883,-2.6918,-2.6981,-2.7009,-2.7051,-2.7097,-2.7137,-2.7173,-2.722,-2.7258,-2.7295,-2.733,-2.7389,-2.7432,-2.7469,-2.752,-2.7533,-2.7556,-2.7565,-2.7552,-2.7549,-2.7571,-2.7571,-2.7585,-2.7585,-2.7585,-2.7584,0,-2.6873,-2.6916,-2.6968,-2.7033,-2.705,-2.7078,-2.7135,-2.7165,-2.7202,-2.7249,-2.7263,-2.7323,-2.7376,-2.7426,-2.7497,-2.7522,-2.7573,-2.7586,-2.7554,-2.7559,-2.7572,-2.757,-2.7605,-2.7612,-2.7608,-2.7608,-2.7608,0,-2.688,-2.6907,-2.6974,-2.7001,-2.7031,-2.7074,-2.7105,-2.7153,-2.7185,-2.7248,-2.7271,-2.7327,-2.7373,-2.7456,-2.7508,-2.7563,-2.7577,-2.7586,-2.7586,-2.7572,-2.7578,-2.7575,-2.7579,-2.7585,-2.7584,-2.7584,-2.7584,0,-2.6888,-2.6909,-2.6951,-2.7001,-2.7037,-2.708,-2.7124,-2.7145,-2.7201,-2.7236,-2.7289,-2.7325,-2.7397,-2.7452,-2.7513,-2.755,-2.7577,-2.7583,-2.759,-2.7577,-2.7558,-2.7569,-2.7551,-2.7582,-2.7583,-2.7583,-2.7583,-2.7583,-2.6888,-2.6914,-2.6965,-2.7012,-2.7049,-2.709,-2.7121,-2.7161,-2.7206,-2.7266,-2.7292,-2.7346,-2.7402,-2.7486,-2.7523,-2.7568,-2.7574,-2.7584,-2.7586,-2.7588,-2.7585,-2.755,-2.7579,-2.7579,-2.758,-2.758,-2.758,0,-2.6899,-2.6933,-2.6975,-2.7035,-2.7072,-2.7092,-2.7142,-2.7173,-2.7219,-2.7267,-2.7311,-2.7373,-2.7427,-2.7482,-2.754,-2.7565,-2.7579,-2.7579,-2.7578,-2.7586,-2.7576,-2.7564,-2.7566,-2.7566,-2.7566,-2.7566,-2.7566,-2.7566,-2.6909,-2.6954,-2.698,-2.7046,-2.7082,-2.7132,-2.7159,-2.7198,-2.7237,-2.7303,-2.7347,-2.7381,-2.7433,-2.7495,-2.7546,-2.7561,-2.7581,-2.7577,-2.7596,-2.7586,-2.7586,-2.7587,-2.7576,-2.7581,-2.7581,-2.7602,-2.7602,-2.7602]},{"header":{"parameterUnit":"m.s-1","parameterCategory":1,"la1":30.2991,"la2":30.254,"lo1":-89.0895,"lo2":-89.0444,"dy":0.0017,"dx":0.0017,"nx":28,"ny":28,"refTime":"2025-07-24T21:00:00:Z","depth":0,"parameterNumber":3,"parameterNumberName":"V-component_of_WINDS"},"data":[0,0,0,0,0,0,0,0,0,0,0,0,0,0,0,0,0,0,0,0,0,0,0,0,0,0,0,0,0,0,0,0,0,0,0,0,0,0,0,0,0,0,0,0,0,0,0,0,0,0,0,0,0,0,0,0,0,0,6.91,6.9101,0,6.9208,6.9209,6.9211,6.9173,6.917,6.9168,6.9166,6.9271,6.9276,6.9281,0,0,0,0,0,0,0,0,0,0,0,0,0,6.8858,6.8862,6.91,6.9101,6.9103,6.9208,6.9209,6.9211,6.9173,6.917,6.9167,6.9164,6.9269,6.9275,6.9281,0,0,0,0,0,0,0,0,0,0,0,0,0,6.8964,6.8864,6.91,6.9096,6.9097,6.9208,6.921,6.9211,6.9174,6.917,6.9166,6.9163,6.9267,6.9275,6.9282,6.9401,0,0,6.9305,6.9309,0,0,0,0,0,0,0,0,6.8958,6.8973,6.9096,6.9097,6.9098,6.9173,6.9163,6.9275,6.9174,6.9144,6.9165,6.9161,6.9241,6.9251,6.9279,6.9405,6.941,6.9306,6.9311,6.9314,6.9316,0,0,0,0,0,0,0,6.8951,6.8968,6.9142,6.9097,6.9099,6.9089,6.91,6.9184,6.9211,6.9147,6.9144,6.9158,6.9241,6.9271,6.9281,6.9412,6.9306,6.9312,6.9317,6.932,6.9644,6.9648,0,0,0,0,0,0,6.8943,6.8962,6.9139,6.9146,6.9018,6.9096,6.9109,6.9153,6.921,6.9216,6.9161,6.9156,6.926,6.9272,6.9284,6.9429,6.9314,6.9321,6.9325,6.964,6.9645,6.965,0,0,0,0,0,0,6.8938,6.8959,6.9135,6.9053,6.9075,6.9104,6.9154,6.9157,6.9187,6.9221,6.9225,6.9187,6.9258,6.9274,6.9373,6.9432,6.9324,6.9331,6.9635,6.9642,6.9647,6.9717,0,0,0,0,0,0,6.8931,6.8958,6.9003,6.9055,6.908,6.9223,6.9158,6.9161,6.9201,6.9195,6.9247,6.9252,6.9256,6.9362,6.9381,6.944,6.9337,6.963,6.9638,6.9645,6.971,6.9725,6.9738,0,0,0,0,0,6.8923,6.9017,6.9006,6.9027,6.9137,6.9226,6.924,6.9245,6.9206,6.9252,6.9274,6.925,6.9423,6.9373,6.9393,6.9456,6.9627,6.9636,6.9645,6.9703,6.9722,6.9738,0,0,0,0,0,0,6.8968,6.9023,6.9012,6.9125,6.9172,6.9219,6.9277,6.9264,6.932,6.9312,6.9314,6.9326,6.9429,6.9452,6.9396,6.9575,6.9519,6.9532,6.9556,6.9574,6.9588,6.958,6.9343,0,0,0,0,0,6.8992,6.9061,6.9105,6.9201,6.9225,6.9248,6.9286,6.9286,6.9333,6.9352,6.9382,6.9427,6.9492,6.9534,6.9595,6.9713,6.9725,6.9767,6.9781,6.9792,6.9804,6.9871,6.9891,6.968,6.968,6.968,0,0,6.9041,6.908,6.9122,6.9211,6.9247,6.9318,6.9264,6.934,6.9392,6.9363,6.946,6.9484,6.9534,6.9645,6.9694,6.9667,6.9865,6.9804,6.9813,6.9819,6.9882,6.9902,6.992,6.9686,6.9685,6.9684,0,0,6.9166,6.9202,6.9288,6.9326,6.9382,6.9397,6.9418,6.9469,6.9485,6.9582,6.9563,6.9624,6.9735,6.9774,6.9807,6.9952,6.9933,6.9972,7.0045,7.011,7.0127,7.0141,7.0195,7.0213,6.9983,6.9984,6.9984,0,6.9219,6.9326,6.9332,6.9412,6.9452,6.9432,6.9519,6.9555,6.9628,6.9656,6.9624,6.9766,6.9798,6.9919,6.9955,6.9982,7.0006,6.9965,7.0124,7.0139,7.0153,7.0203,7.0223,6.9988,6.9988,6.9987,6.9987,0,6.939,6.9465,6.9527,6.9601,6.9648,6.973,6.9749,6.9796,6.9793,6.9812,6.9912,6.9952,7.0022,7.005,7.0047,7.0171,7.0153,7.0123,7.0066,7.0177,7.0225,7.0244,6.9995,6.9993,6.9992,6.999,0,0,6.9544,6.9624,6.9647,6.9682,6.9744,6.9801,6.9884,6.9955,6.9996,7.0048,7.0117,7.0214,7.0188,7.0227,7.0227,7.0284,7.0399,7.0248,7.0249,7.0276,7.0541,7.0563,7.0585,7.0387,7.0391,7.0394,7.0537,0,6.9676,6.9822,6.9832,6.9964,7.0035,7.0018,7.009,7.0137,7.0157,7.0219,7.024,7.0309,7.0269,7.0293,7.0349,7.0373,7.0452,7.0363,7.0452,7.0455,7.044,7.061,7.0633,7.0766,7.0555,7.0558,7.0561,0,6.9848,6.9908,7.0049,7.0105,7.0134,7.0199,7.0267,7.0326,7.0379,7.039,7.0436,7.043,7.0514,7.0456,7.0573,7.0512,7.0549,7.0567,7.0572,7.0581,7.0514,7.0623,7.0808,7.0828,7.059,7.0587,7.0585,0,6.9948,7.0065,7.0164,7.0194,7.0262,7.0308,7.0338,7.0387,7.0431,7.049,7.0518,7.0585,7.0622,7.0674,7.0687,7.0643,7.0805,7.0746,7.0816,7.0816,7.085,7.0848,7.1044,7.0874,7.0874,7.0873,7.0873,0,7.0094,7.0181,7.0211,7.0272,7.037,7.038,7.0476,7.0503,7.0548,7.0614,7.0603,7.0665,7.0678,7.0743,7.0753,7.085,7.0866,7.0877,7.0879,7.0879,7.0878,7.0903,7.0894,7.0879,7.0877,7.0876,7.0875,0,7.0222,7.0246,7.0354,7.0411,7.0427,7.0496,7.0544,7.0603,7.0624,7.0708,7.0728,7.076,7.0836,7.0854,7.0944,7.0951,7.1066,7.1058,7.1049,7.1049,7.1118,7.1112,7.1338,7.1368,7.1177,7.1179,7.118,0,7.0314,7.0381,7.0446,7.0491,7.0524,7.0596,7.0641,7.0655,7.0702,7.077,7.0821,7.0897,7.0958,7.1081,7.1111,7.118,7.1175,7.1249,7.1185,7.1183,7.1177,7.1174,7.1181,7.1261,7.1263,7.1265,7.1266,0,7.0474,7.0484,7.0551,7.0623,7.0678,7.0735,7.0789,7.0826,7.0848,7.0902,7.0981,7.1029,7.1124,7.1199,7.127,7.1299,7.1287,7.1287,7.1307,7.1307,7.13,7.1306,7.1083,7.1281,7.128,7.1279,7.1278,7.1277,7.0588,7.0648,7.0704,7.078,7.0823,7.0875,7.0934,7.0964,7.1031,7.111,7.1114,7.1201,7.1254,7.1349,7.1383,7.1451,7.1428,7.1457,7.1464,7.1471,7.1478,7.1289,7.1464,7.1463,7.1463,7.1463,7.1462,0,7.0749,7.0785,7.0855,7.0933,7.0994,7.0979,7.104,7.109,7.1168,7.122,7.1281,7.1374,7.1448,7.1486,7.156,7.1607,7.1604,7.1626,7.1623,7.163,7.1494,7.147,7.1628,7.1628,7.1628,7.1628,7.1628,7.1628,7.084,7.0942,7.0958,7.1082,7.1117,7.1204,7.124,7.1289,7.1331,7.1435,7.1498,7.1523,7.157,7.1648,7.1716,7.1725,7.1753,7.1779,7.1785,7.1657,7.164,7.1623,7.1601,7.1785,7.1785,7.1917,7.1918,7.1919]}]]